Regional Weather Roundup
Issued by NWS

Home | Current Version | Previous Version | Text Only | Print | Product List | Glossary On
Versions: 1 2 3 4 5 6 7 8 9 10 11 12 13 14 15 16 17 18 19 20 21 22 23 24 25 26 27 28 29 30 31 32 33 34 35 36 37 38 39 40 41 42 43 44 45 46 47 48 49 50
000
ASUS43 KLOT 290103
RWRIL

ILLINOIS REGIONAL WEATHER ROUNDUP
NATIONAL WEATHER SERVICE CHICAGO/ROMEOVILLE IL
800 PM CDT THU APR 28 2016

NOTE: "FAIR" INDICATES FEW OR NO CLOUDS BELOW 12,000 FEET WITH NO
SIGNIFICANT WEATHER AND/OR OBSTRUCTIONS TO VISIBILITY.

* THESE STATIONS ARE NOT UNDER NWS QUALITY CONTROL. THEY ALSO MAY NOT
  REPORT WEATHER SUCH AS PRECIPITATION OR FOG.

ILZ001-002-007-009-015-016-024-290200-
NORTHWEST ILLINOIS

CITY           SKY/WX    TMP DP  RH WIND       PRES   REMARKS
MOLINE         CLOUDY    54  49  83 E5        29.95R HAZE
STERLING*      CLOUDY    46  46 100 E9        29.98R
$$

ILZ003-004-008-010-011-017-018-290200-
NORTH CENTRAL ILLINOIS

CITY           SKY/WX    TMP DP  RH WIND       PRES   REMARKS
ROCKFORD       DRIZZLE   44  40  85 NE9       30.01R
FREEPORT*      CLOUDY    42  40  91 E9        30.00R
ROCHELLE*      CLOUDY    44  42  91 NE12      29.99R FOG
DE KALB*       CLOUDY    44  42  93 NE10      29.99R FOG
$$

ILZ005-006-012>014-019>023-290200-
NORTHEAST ILLINOIS

CITY           SKY/WX    TMP DP  RH WIND       PRES   REMARKS
CHICAGO-OHARE  CLOUDY    43  40  89 N9        29.97R
CHICAGO-MIDWAY CLOUDY    47  40  76 N9        29.97R
AURORA         CLOUDY    47  41  80 N9        29.98R
LANSING*       CLOUDY    46  42  84 N3        29.97R
WAUKEGAN       CLOUDY    41  39  93 N7        30.00R
DUPAGE AIRPORT CLOUDY    44  39  82 NE9       29.97R
WHEELING       CLOUDY    42  39  89 N8        30.00R
NORTHERLY ISL    N/A     44  40  85 N7          N/A
NORTHERLY ISL    N/A     44  40  85 N7          N/A
$$

LMZ740>746-290200-
SOUTHERN LAKE MICHIGAN

STATION/POSITION SKY/WX   TEMP    WIND        PRES    VSBY  WAVE
                          AIR SEA DIR/SP/G                  HT/PER
                          (F)     (DEG/KT/KT) (MB)    (MI)  (FT/S)
SOUTHERN BUOY              40 40   70/ 12/ 14 1015.1          2/ 4
HARRISON CRIB              44      20/ 12/ 13   N/A
BURNHAM HARBOR             44     330/  6/ 10   N/A
CALUMET HARBOR             44                 1013.9R
BURNS HARBOR               46      20/  4/  9 1014.6R
MICHIGAN CITY              46      30/  7/  7   N/A
ST. JOSEPH                 51 48     CALM       N/A           1/ 5
$$

ILZ025>027-034>036-040-047-049-050-058-095>099-290200-
WEST-CENTRAL ILLINOIS

CITY           SKY/WX    TMP DP  RH WIND       PRES   REMARKS
QUINCY         CLOUDY    58  47  66 W6        29.98R
MACOMB*        CLOUDY    56  49  78 W6        29.99R
PITTSFIELD*    CLOUDY    60  49  65 SW6       30.00R
$$

ILZ028>032-037-038-041>044-048-051>054-059>061-290200-
CENTRAL ILLINOIS

CITY           SKY/WX    TMP DP  RH WIND       PRES   REMARKS
BLOOMINGTON    CLOUDY    57  48  72 W12       29.97R
DECATUR        MOCLDY    60  47  61 NW10      29.96R
PEORIA         CLOUDY    57  46  66 CALM      29.96R
SPRINGFIELD    CLOUDY    61  49  64 W8        29.98R
TAYLORVILLE    NOT AVBL
$$

ILZ033-039-045-046-055>057-062-063-290200-
EAST-CENTRAL ILLINOIS

CITY           SKY/WX    TMP DP  RH WIND       PRES   REMARKS
CHAMPAIGN      CLEAR     57  48  72 NW13      29.95R
MATTOON        CLEAR     59  51  75 NW9       29.94R
$$

ILZ079-100>102-290200-
SOUTHWEST ILLINOIS

CITY           SKY/WX    TMP DP  RH WIND       PRES   REMARKS
CAHOKIA*       CLEAR     66  50  56 NW12      29.95R
SPARTA*        CLEAR     67  53  59 CALM      29.96R
$$

ILZ064>066-069>071-074>076-080>082-084>086-088>090-092>094-290200-
SOUTH-CENTRAL ILLINOIS

CITY           SKY/WX    TMP DP  RH WIND       PRES   REMARKS
CARBONDALE     PTCLDY    69  49  48 W3        29.93R
MT. VERNON     CLEAR     64  48  55 CALM      29.95R
SALEM*         CLEAR     66  53  62 CALM      29.94S
$$

ILZ067-068-072-073-078-083-087-091-290200-
SOUTHEAST ILLINOIS

CITY           SKY/WX    TMP DP  RH WIND       PRES   REMARKS
LAWRENCEVILLE  CLEAR     65  53  65 NW8       29.93R
FLORA*         CLEAR     65  53  63 NW5       29.95R
HARRISBURG*    CLEAR     69  54  58 CALM      29.94R
ROBINSON*      CLEAR     63  53  70 NW8       29.94R
$$

ABBREVIATIONS USED IN REMARKS
   TC - TEMPERATURE IN CELSIUS
  WCI - WIND CHILL INDEX
   HX - HEAT INDEX
  VSB - VISIBILITY
$$





USA.gov is the U.S. government's official web portal to all federal, state and local government web resources and services.